Flag for Germany Weather past 2 weeks in Eisenach, Thuringia, Germany

Now
50 °F

Overcast.


Feels Like: 48 °F
Forecast: 40 / 68 °F
Wind: 6 mph from Southwest

Location: Meiningen

Current Time: May 30, 2015 at 5:28:12 AM

Latest Report: May 30, 2015 at 4:00 AM


Visibility: 13 mi

Pressure: 29.82 "Hg

Humidity: 86%

Dew point: 46 °F

Location of EisenachLocation

Historic Weather in Eisenach — Graph

°F

Eisenach temperature yesterday

Maximum temperature yesterday: 63 °F (at 4:00 PM)
Minimum temperature yesterday: 44 °F (at 6:00 AM)
Average temperature yesterday: 55 °F

Past Weeks' High & Low Weather Summary

 TemperatureHumidityPressure
High68 °F (May 18, 6:00 PM)100% (May 29, 6:00 AM)30.38 "Hg (May 29, 6:00 AM)
Low36 °F (May 28, 6:00 AM)24% (May 15, 4:00 PM)29.67 "Hg (May 18, 8:00 PM)
Average53 °F65%30.06 "Hg
* Reported May 15 4:00 AM — May 30 4:00 AM, Eisenach, Weather by CustomWeather, © 2015

Note: Actual official high and low records may vary slightly from our data, if they occured in-between our weather recording intervals... More about our weather records

Advertising

Eisenach weather history for previous 24 hours

 ConditionsComfort  
Time TempWeatherWind HumidityBarometerVisibility
4:00 AM
Sat, May 30
50 °FOvercast.6 mph86%29.82 "Hg13 mi
3:00 AM51 °FOvercast.5 mph80%29.82 "Hg18 mi
2:00 AM51 °FOvercast.2 mph81%29.83 "Hg18 mi
1:00 AM52 °FOvercast.5 mph73%29.83 "Hg28 mi
12:00 AM52 °FPassing clouds.5 mph75%29.83 "Hg28 mi
10:00 PM
Fri, May 29
54 °FOvercast.3 mph82%29.82 "Hg28 mi
9:00 PM55 °FOvercast.3 mph85%29.80 "Hg25 mi
8:00 PM57 °FOvercast.6 mph73%29.79 "Hg40 mi
7:00 PM58 °FOvercast.7 mph69%29.79 "Hg22 mi
6:00 PM61 °FOvercast.6 mph57%29.78 "Hg31 mi
4:00 PM63 °FOvercast.6 mph46%29.80 "Hg17 mi
3:00 PM61 °FOvercast.5 mph49%29.83 "Hg31 mi
2:00 PM62 °FOvercast.6 mph46%29.85 "Hg22 mi
1:00 PM61 °FOvercast.6 mph46%29.86 "Hg19 mi
12:00 PM61 °FOvercast.6 mph52%29.87 "Hg11 mi
10:00 AM56 °FOvercast.6 mph62%29.91 "Hg17 mi
9:00 AM51 °FPartly sunny.3 mph84%29.93 "Hg7 mi
8:00 AM47 °FOvercast.2 mph98%29.96 "Hg1 mi
7:00 AM45 °FOvercast.2 mph100%29.96 "Hg0 mi
6:00 AM44 °FOvercast.1 mph100%29.97 "Hg0 mi
Weather by CustomWeather, © 2015

See weather overviewHow to use our weather pages